N2YJJ-2 Weather Reports


Display with metric or nautical units.
time (UTC)temp
F
wind
direction
speed
MPH
gust
MPH
rain 1hr
in
rain 24hr
in
rain mn
in
humidity
%
barometer
mb
20260901040002 68 233 0.0 1.0 0.04 1.89 0.00 100 1020.4
20260901035002 68 233 0.0 0.0 0.02 1.87 1.87 100 1020.5
20260901034002 68 233 0.0 0.0 0.00 1.85 1.85 100 1020.5
20260901032002 68 233 0.0 0.0 0.00 1.85 1.85 100 1020.6
20260901031003 68 233 0.0 0.0 0.00 1.85 1.85 100 1020.8
20260901030002 68 233 0.0 0.0 0.00 1.85 1.85 100 1021.0
20260901025002 69 233 0.0 0.0 0.00 1.85 1.85 100 1021.0
20260901024002 69 233 0.0 0.0 0.01 1.85 1.85 100 1021.2
20260901023002 69 233 0.0 0.0 0.01 1.85 1.85 100 1021.5
20260901022003 69 233 0.0 1.0 0.01 1.85 1.85 100 1021.3
20260901021003 69 233 0.0 2.0 0.01 1.85 1.85 100 1021.1
20260901020003 69 233 0.0 1.0 0.01 1.85 1.85 100 1021.0
20260901015002 69 233 0.0 0.0 0.01 1.85 1.85 100 1021.2
20260901014002 69 233 0.0 0.0 0.00 1.84 1.84 100 1021.3
20260901013002 69 233 0.0 0.0 0.00 1.84 1.84 100 1021.5
20260901012003 69 233 0.0 0.0 0.00 1.84 1.84 100 1021.6
20260901011002 69 233 0.0 0.0 0.00 1.84 1.84 100 1021.4
20260901010002 69 233 0.0 1.0 0.00 1.84 1.84 100 1021.2
20260901004003 69 105 0.0 0.0 0.00 1.84 1.84 100 1021.0
20260901003002 69 105 0.0 0.0 0.00 1.84 1.84 100 1021.0
20260901002002 70 105 0.0 0.0 0.00 1.84 1.84 100 1020.9
20260901001002 70 105 0.0 1.0 0.00 1.84 1.84 100 1020.8
20260901000003 70 105 0.0 0.0 0.00 1.84 1.84 100 1020.8
20260831235003 70 105 0.0 1.0 0.00 1.84 1.84 100 1020.6
20260831233003 70 162 1.0 3.0 0.00 1.84 1.84 100 1020.6
20260831231002 71 65 0.0 0.0 0.00 1.84 1.84 100 1021.2
20260831230002 71 65 0.0 2.0 0.00 1.84 1.84 100 1021.3
20260831225003 71 65 0.0 0.0 0.00 1.84 1.84 100 1021.3
20260831223003 71 65 0.0 1.0 0.00 1.84 1.84 100 1021.4
20260831222002 71 65 0.0 2.0 0.00 1.84 1.84 100 1021.2
20260831221004 71 65 0.0 2.0 0.00 1.84 1.84 100 1021.4
20260831214002 71 337 0.0 0.0 0.00 1.84 1.84 100 1021.4
20260831213002 71 337 0.0 0.0 0.00 1.84 1.84 100 1021.3
20260831212003 71 337 0.0 2.0 0.00 1.84 1.84 100 1021.4
20260831211003 71 329 0.0 1.0 0.00 1.84 1.84 100 1021.2
20260831210003 71 328 1.0 5.0 0.00 1.84 1.84 100 1021.2
20260831204002 72 258 0.0 1.0 0.00 1.84 1.84 100 1021.1
20260831203003 72 205 0.0 0.0 0.00 1.84 1.84 100 1021.1
20260831202003 72 205 0.0 3.0 0.00 1.84 1.84 100 1021.1
20260831200003 71 157 0.0 1.0 0.00 1.84 1.84 100 1021.4
20260831195003 71 157 0.0 2.0 0.00 1.84 1.84 100 1021.4
20260831194003 70 125 0.0 2.0 0.02 1.84 1.84 100 1021.6
20260831193003 70 134 0.0 1.0 0.05 1.84 1.84 100 1021.7
20260831192004 70 134 1.0 3.0 0.07 1.84 1.84 100 1021.7
20260831191002 69 148 1.0 3.0 0.10 1.84 1.84 100 1021.7
20260831190002 69 152 1.0 3.0 0.12 1.84 1.84 100 1021.8
20260831185003 69 103 0.0 3.0 0.14 1.84 1.84 100 1021.9
20260831184003 69 129 1.0 2.0 0.13 1.82 1.82 100 1021.9
20260831183004 69 164 0.0 3.0 0.10 1.79 1.79 100 1022.0
20260831181002 68 102 1.0 3.0 0.05 1.74 1.74 100 1022.1
20260831173003 69 69 1.0 2.0 0.01 1.69 1.69 100 1022.5
20260831172003 68 122 1.0 5.0 0.01 1.69 1.69 100 1022.5
20260831171003 68 135 1.0 3.0 0.02 1.69 1.69 100 1022.7
20260831170004 68 151 2.0 3.0 0.02 1.69 1.69 100 1022.6
20260831165003 68 116 0.0 3.0 0.01 1.68 1.68 100 1022.9
20260831164003 68 143 1.0 3.0 0.01 1.68 1.68 100 1022.8
20260831163004 68 137 1.0 3.0 0.01 1.68 1.68 100 1022.8
20260831162004 68 141 2.0 3.0 0.01 1.68 1.68 100 1022.9
20260831161004 68 99 1.0 3.0 0.00 1.67 1.67 100 1023.1
20260831160003 68 123 0.0 1.0 0.00 1.67 1.67 100 1023.3
20260831154003 67 164 0.0 2.0 0.04 1.67 1.67 100 1023.5
20260831153003 67 156 0.0 3.0 0.09 1.67 1.67 100 1023.5
20260831152004 67 137 0.0 2.0 0.15 1.67 1.67 100 1023.4
20260831150003 67 150 2.0 3.0 0.30 1.68 1.67 100 1023.4
20260831145003 67 133 2.0 3.0 0.36 1.68 1.66 100 1023.3
20260831144003 67 154 1.0 3.0 0.42 1.65 1.63 100 1023.3
20260831143004 66 127 1.0 3.0 0.46 1.60 1.58 100 1023.5
20260831142004 66 129 1.0 5.0 0.47 1.54 1.52 100 1023.4
20260831141004 66 92 1.0 2.0 0.50 1.47 1.45 100 1023.5
20260831140004 66 116 1.0 3.0 0.52 1.39 1.37 100 1023.5
20260831135003 66 217 1.0 3.0 0.56 1.32 1.30 100 1023.5
20260831134004 66 153 2.0 3.0 0.57 1.23 1.21 100 1023.6
20260831133003 66 272 1.0 3.0 0.59 1.14 1.12 100 1023.6
20260831132003 66 214 1.0 3.0 0.64 1.07 1.05 100 1023.5
20260831131003 66 162 1.0 3.0 0.67 0.97 0.95 100 1023.5
20260831130004 66 198 1.0 3.0 0.69 0.87 0.85 100 1023.6
20260831124004 66 128 1.0 2.0 0.60 0.66 0.64 100 1023.7
20260831122004 66 127 1.0 3.0 0.37 0.43 0.41 100 1023.8
20260831121005 67 98 1.0 3.0 0.24 0.30 0.28 100 1024.0
20260831120005 67 0 0.0 2.0 0.12 0.18 0.16 100 1024.4
20260831115006 67 89 1.0 2.0 0.05 0.11 0.09 100 1023.9
20260831114005 67 152 0.0 2.0 0.00 0.06 0.04 100 1023.8
20260831112005 67 152 0.0 2.0 0.01 0.06 0.04 100 1023.6
20260831111006 67 158 1.0 3.0 0.01 0.06 0.04 99 1023.5
20260831110005 67 132 1.0 3.0 0.01 0.06 0.04 99 1023.7
20260831104005 67 190 0.0 2.0 0.02 0.06 0.04 99 1023.5
20260831102006 67 190 0.0 2.0 0.02 0.05 0.03 99 1023.6
20260831101007 67 190 0.0 2.0 0.02 0.05 0.03 99 1023.6
20260831100005 67 146 0.0 2.0 0.02 0.05 0.03 99 1023.4
20260831095005 67 121 1.0 2.0 0.01 0.04 0.02 99 1023.5
20260831093005 67 135 0.0 2.0 0.01 0.04 0.02 99 1023.6
20260831092005 67 103 0.0 2.0 0.00 0.03 0.01 99 1023.6
20260831091006 67 128 0.0 3.0 0.00 0.03 0.01 99 1023.7
20260831090006 67 235 0.0 1.0 0.00 0.03 0.01 99 1023.9
20260831085005 67 235 0.0 0.0 0.00 0.03 0.01 99 1023.9
20260831084005 67 235 0.0 0.0 0.00 0.03 0.01 99 1023.9
20260831082005 67 235 0.0 0.0 0.00 0.03 0.01 99 1024.2
20260831081006 67 235 0.0 0.0 0.00 0.03 0.01 99 1024.2
20260831080006 67 235 0.0 0.0 0.01 0.03 0.01 99 1024.2
20260831075005 67 235 1.0 1.0 0.01 0.03 0.01 99 1024.1
20260831074005 66 235 0.0 0.0 0.01 0.03 0.01 99 1024.2
20260831073005 66 235 0.0 0.0 0.01 0.03 0.01 99 1024.1
20260831072005 66 235 0.0 0.0 0.01 0.03 0.01 99 1024.3
20260831071006 66 235 0.0 0.0 0.01 0.03 0.01 99 1024.2
20260831070006 66 235 0.0 1.0 0.00 0.02 0.00 99 1024.3
20260831064006 66 235 0.0 0.0 0.00 0.02 0.00 99 1024.5
20260831063005 66 235 0.0 0.0 0.00 0.02 0.00 99 1024.4
20260831061006 66 235 0.0 0.0 0.00 0.02 0.00 99 1024.6
20260831060006 66 235 0.0 0.0 0.00 0.02 0.00 99 1024.6
20260831055006 66 235 0.0 0.0 0.00 0.02 0.00 99 1024.6
20260831054005 66 235 0.0 0.0 0.00 0.02 0.00 98 1024.7
20260831053006 66 235 0.0 0.0 0.00 0.02 0.00 98 1024.6
20260831050005 66 235 0.0 0.0 0.00 0.02 0.00 98 1024.5
20260831045007 66 235 0.0 0.0 0.00 0.02 0.00 98 1024.5
20260831044006 66 235 0.0 0.0 0.00 0.02 0.00 98 1024.6
20260831043006 66 235 0.0 1.0 0.00 0.02 0.00 98 1024.5